Home   Weather   Gran   Past weeks

Flag for Norway Past Weather in Gran, Norway — Yesterday and Last 2 Weeks

Now
54 °F

Sunny.


Feels Like: 49 °F
Forecast: 38 / 50 °F
Wind: 15 mph from Southwest

Location: Oslo Gardermoen Airport

Current Time: Sep 30, 2016 at 1:49:44 PM

Latest Report: Sep 30, 2016 at 12:50 PM


Visibility: 10 mi

Pressure: 29.36 "Hg

Humidity: 47%

Dew Point: 34 °F

Location of GranLocation

Past Weather in Gran — Graph

°F

Gran Temperature Yesterday

Maximum temperature yesterday: 61 °F (at 1:20 PM)
Minimum temperature yesterday: 46 °F (at 5:20 AM)
Average temperature yesterday: 53 °F

High & Low Weather Summary for the Past Weeks

 TemperatureHumidityPressure
High72 °F (Sep 15, 4:20 PM)100% (Sep 19, 9:50 AM)30.24 "Hg (Sep 19, 9:50 AM)
Low41 °F (Sep 24, 6:20 AM)39% (Sep 29, 4:20 PM)28.97 "Hg (Sep 29, 8:20 PM)
Average55 °F80%29.99 "Hg
* Reported Sep 15 12:20 PM — Sep 30 12:20 PM, Gran, Weather by CustomWeather, © 2016

Note: Actual official high and low records may vary slightly from our data, if they occured in-between our weather recording intervals... More about our weather records

Advertising

Gran Weather History for the Previous 24 Hours

Scroll right to see more
 ConditionsComfort  
Time TempWeatherWind HumidityBarometerVisibility
12:20 PM
Fri, Sep 30
54 °FPassing clouds.12 mph47%29.36 "HgN/A
11:50 AM50 °FPassing clouds.10 mph54%29.36 "HgN/A
11:20 AM50 °FSunny.10 mph54%29.36 "Hg10 mi
10:20 AM48 °FSunny.10 mph54%29.36 "Hg10 mi
9:50 AM48 °FSunny.13 mph54%29.33 "Hg10 mi
9:20 AM48 °FSunny.9 mph54%29.33 "Hg10 mi
8:50 AM46 °FSunny.9 mph57%29.33 "Hg10 mi
8:20 AM46 °FSunny.9 mph53%29.30 "Hg10 mi
7:50 AM46 °FPassing clouds.9 mph53%29.30 "HgN/A
7:20 AM45 °FPassing clouds.7 mph57%29.30 "HgN/A
6:50 AM46 °FPassing clouds.9 mph50%29.27 "HgN/A
6:20 AM46 °FPassing clouds.6 mph53%29.27 "HgN/A
5:50 AM48 °FPassing clouds.8 mph46%29.24 "HgN/A
5:20 AM48 °FPassing clouds.5 mph46%29.24 "HgN/A
4:50 AM48 °FPassing clouds.9 mph50%29.21 "HgN/A
3:50 AM50 °FClear.7 mph50%29.18 "Hg10 mi
3:20 AM50 °FPassing clouds.12 mph50%29.15 "HgN/A
2:50 AM52 °FPassing clouds.9 mph47%29.15 "HgN/A
2:20 AM52 °FPassing clouds.12 mph50%29.15 "HgN/A
1:50 AM52 °FPassing clouds.12 mph50%29.12 "HgN/A
1:20 AM52 °FPassing clouds.12 mph54%29.12 "HgN/A
12:50 AM52 °FPassing clouds.14 mph54%29.09 "HgN/A
12:20 AM50 °FClear.12 mph62%29.09 "Hg10 mi
11:50 PM
Thu, Sep 29
50 °FPassing clouds.12 mph62%29.06 "HgN/A
11:20 PM50 °FClear.14 mph62%29.06 "Hg10 mi
10:50 PM50 °FClear.17 mph67%29.03 "Hg10 mi
10:20 PM52 °FClear.16 mph62%29.03 "Hg10 mi
9:50 PM50 °FClear.17 mph67%29.00 "Hg10 mi
9:20 PM52 °FClear.23 mph62%28.97 "Hg10 mi
8:50 PM52 °FClear.23 mph62%28.97 "Hg10 mi
8:20 PM52 °FPassing clouds.21 mph62%28.97 "HgN/A
7:50 PM54 °FPassing clouds.17 mph58%29.00 "HgN/A
7:20 PM54 °FPassing clouds.17 mph63%29.00 "HgN/A
6:50 PM55 °FLight rain. Partly sunny.15 mph55%29.03 "HgN/A
6:20 PM55 °FPartly sunny.16 mph55%29.00 "HgN/A
5:50 PM57 °FPassing clouds.20 mph48%29.03 "HgN/A
5:20 PM59 °FPassing clouds.21 mph45%29.03 "HgN/A
4:50 PM59 °FSunny.24 mph42%29.03 "Hg10 mi
4:20 PM61 °FPassing clouds.24 mph39%29.03 "HgN/A
3:50 PM61 °FPassing clouds.20 mph42%29.03 "HgN/A
3:20 PM59 °FPassing clouds.13 mph45%29.06 "HgN/A
2:50 PM61 °FPassing clouds.22 mph42%29.09 "HgN/A
2:20 PM61 °FPassing clouds.21 mph48%29.09 "HgN/A
1:50 PM61 °FScattered clouds.20 mph48%29.09 "HgN/A
1:20 PM61 °FScattered clouds.20 mph55%29.09 "HgN/A
Weather by CustomWeather, © 2016

See weather overviewHow to use our weather pages